Regional Weather Roundup
Issued by NWS Charleston, WV

Home | Current Version | Previous Version | Text Only | Print | Product List | Glossary Off
Versions: 1 2 3 4 5 6 7 8 9 10 11 12 13 14 15 16 17 18 19 20 21 22 23 24 25 26 27 28 29 30 31 32 33 34 35 36 37 38 39 40 41 42 43 44 45 46 47 48 49 50

037
ASUS41 KRLX 152210
RWRRLX
West Virginia Regional Weather Roundup
National Weather Service Charleston WV
600 PM EDT TUE AUG 15 2017

Note: "fair" indicates few or no clouds below 12,000 feet with no
significant weather and/or obstructions to visibility.

WVZ003-152300-
Northern Panhandle of West Virginia

CITY           SKY/WX    TMP DP  RH WIND       PRES   REMARKS
WHEELING       SUNNY     83  63  50 NW8       29.91S
$$

WVZ009-152300-
Northwest West Virginia

CITY           SKY/WX    TMP DP  RH WIND       PRES   REMARKS
PARKERSBURG    MOSUNNY   87  68  52 VRB3      29.93S
$$

WVZ006-152300-
Western West Virginia

CITY           SKY/WX    TMP DP  RH WIND       PRES   REMARKS
HUNTINGTON     MOSUNNY   86  69  56 NW7       29.91R
$$

WVZ015-152300-
West Central West Virginia

CITY           SKY/WX    TMP DP  RH WIND       PRES   REMARKS
CHARLESTON     MOSUNNY   85  70  60 CALM      29.92R
$$

WVZ022-031-152300-
North Central West Virginia

CITY           SKY/WX    TMP DP  RH WIND       PRES   REMARKS
CLARKSBURG     MOSUNNY   85  65  51 NW6       29.92S
MORGANTOWN     PTSUNNY   83  66  56 VRB5      29.93S
$$

WVZ025-035-042-045-152300-
Southern West Virginia

CITY           SKY/WX    TMP DP  RH WIND       PRES   REMARKS
BECKLEY        SUNNY     78  66  66 N12       30.00S
LOGAN            N/A     81  70  69 W5        29.96S
BLUEFIELD      CLOUDY    75  65  70 W9        30.03S
LEWISBURG      MOSUNNY   78  65  63 NW5       29.98S
$$

WVZ047-152300-
Northern Mountains of West Virginia

CITY           SKY/WX    TMP DP  RH WIND       PRES   REMARKS
ELKINS         MOSUNNY   80  65  59 N7        29.98R
$$

WVZ052-152300-
Eastern Panhandle of West Virginia

CITY           SKY/WX    TMP DP  RH WIND       PRES   REMARKS
MARTINSBURG    MOSUNNY   79  70  74 E5        29.90R
PETERSBURG     SUNNY     85  74  71 CALM      29.90F
$$




USA.gov is the U.S. government's official web portal to all federal, state and local government web resources and services.